2022-098Q (53458 NORAD) Tracking and Keplerian Element Data

This shows tracking and keplerian element data for the satellite.

Feedback or suggestion? Click here.




ElementValue
Catalog53458
Name2022-098Q
Epoch Orbit1552
Epoch Day325.11856575
Epoch Year2022
RAAN59.8543
Inclination97.5309
Eccentricity0.0009961
Argument of Perigee292.0467
Mean Anonmoly187.1369
Mean Motion15.1259411
Decay Rate7.712E-05
L11 53458U 22098Q 22325.11856575 .00007712 00000+0 44489-3 0 9996
L22 53458 97.5309 59.8543 0009961 292.0467 187.1369 15.12594110 15526



Live tracking and technical data element details for 2022-098Q (NORAD 53458). 2022-098Q can be tracked NOW for your location showing map with azimuth and elevation plus other details from your city location.







IsCatalogInMostPopularTable: catalog: 53458, numindb: 6
Update: records affected: 1



GetName: 53458 2022-098Q

Hit Count: updated at: Thu, 08 Dec 2022 19:44:30 GMT